IRIDIUM 163 (43575 NORAD) Tracking and Keplerian Element Data

This shows tracking and keplerian element data for the satellite.

Feedback or suggestion? Click here.




ElementValue
Catalog43575
NameIRIDIUM 163
Epoch Orbit419
Epoch Day235.35456434
Epoch Year2018
RAAN169.7798
Inclination86.4022
Eccentricity0.0002039
Argument of Perigee107.5955
Mean Anonmoly252.5464
Mean Motion14.34218106
Decay Rate1.8E-07
L11 43575U 18061G 18235.35456434 .00000018 00000-0 -63029-6 0 9999
L22 43575 86.4022 169.7798 0002039 107.5955 252.5464 14.34218106 4193

Live tracking and technical data element details for IRIDIUM 163 (NORAD 43575). IRIDIUM 163 can be tracked NOW for your location showing map with azimuth and elevation plus other details from your city location.

Track the satellite on the map from your city or location and see movement details for azimuth, elevation, latitude, longitude, range, height, and movement on the map or in text.







IsCatalogInMostPopularTable: catalog: 43575, numindb: 40
Update: records affected: 1



GetName: 43575 IRIDIUM 163

Hit Count: updated at: Tue, 20 Nov 2018 12:11:47 GMT